Probability
3 2 3 4 3 2 2 2 2 2 3 4 6 7 6 4 4 6 7 7 9 10 8 5 2 0 0 0 0 0 0 0 0 0 0 0 0 0 0 0 0 0 0
2 3 4 3 2 2 2 2 1 1 1 2 3 4 4 3 4 4 5 5 6 6 5 3 2 0 0 0 0 0 0 0 0 0 0 0 0 0 0 0 0 0 0
1 2 2 1 1 1 1 1 0 0 0 0 1 1 1 2 3 2 1 2 2 2 1 1 1 0 0 0 0 0 0 0 0 0 0 0 0 0 0 0 0 0 0
0 1 1 0 0 0 0 0 0 0 0 0 0 0 0 1 1 0 0 0 0 0 0 0 0 0 0 0 0 0 0 0 0 0 0 0 0 0 0 0 0 0 0
0 0 0 0 0 0 0 0 0 0 0 0 0 0 0 0 0 0 0 0 0 0 0 0 0 0 0 0 0 0 0 0 0 0 0 0 0 0 0 0 0 0 0
0 0 0 0 0 0 0 0 0 0 0 0 0 0 0 0 0 0 0 0 0 0 0 0 0 0 0 0 0 0 0 0 0 0 0 0 0 0 0 0 0 0 0
0 0 0 0 0 0 0 0 0 0 0 0 0 0 0 0 0 0 0 0 0 0 0 0 0 0 0 0 0 0 0 0 0 0 0 0 0 0 0 0 0 0 0
0 0 0 0 0 0 0 0 0 0 0 0 0 0 0 0 0 0 0 0 0 0 0 0 0 0 0 0 0 0 0 0 1 1 0 0 0 0 0 0 0 0 0
0 0 0 0 0 0 0 0 0 0 0 0 0 0 0 0 0 0 0 0 0 0 0 0 0 0 0 0 0 0 0 1 2 2 1 1 0 0 0 0 0 0 0
0 0 0 0 0 0 0 0 0 0 0 0 0 0 0 0 0 0 0 0 0 0 0 0 0 0 0 0 0 0 0 1 2 3 3 2 1 0 0 0 0 0 0
0 0 0 0 0 0 0 0 0 0 0 0 0 0 0 0 0 0 0 0 0 0 0 0 0 0 0 0 0 0 0 1 2 3 3 2 1 0 0 0 0 0 0
0 0 0 0 0 0 0 0 0 0 0 0 0 0 0 0 0 0 0 0 0 0 0 0 0 0 0 0 0 0 0 0 1 1 2 2 1 0 0 0 0 0 0
0 0 0 0 0 0 0 0 0 0 0 0 0 0 0 0 0 0 0 0 0 0 0 0 0 0 0 0 0 0 0 0 0 0 1 1 0 0 0 0 0 0 0
0 0 0 0 0 0 0 0 0 0 0 0 0 0 0 0 0 0 0 0 0 0 0 0 0 0 0 0 0 0 0 0 0 0 0 0 0 0 0 0 0 0 0
0 0 0 0 0 0 0 0 0 0 0 0 0 0 0 0 0 0 0 0 0 0 0 0 0 0 0 0 0 0 0 0 0 0 0 0 0 0 0 0 0 0 0
0 0 0 0 0 0 0 0 0 0 0 0 0 0 0 0 0 0 0 0 0 0 0 0 0 0 0 0 0 0 0 0 0 0 0 0 0 0 0 0 0 0 0
0 0 0 0 0 0 0 0 0 0 0 0 0 0 0 0 0 0 0 0 0 0 0 0 0 0 0 0 0 0 0 0 0 0 0 0 0 0 0 0 0 0 0
0 0 0 0 0 0 0 0 0 0 0 0 0 0 0 0 0 0 0 0 0 0 0 0 0 0 0 0 0 0 0 0 0 0 0 0 0 0 0 0 0 0 0
0 0 0 0 0 0 0 0 0 0 0 0 0 0 0 0 0 0 0 0 0 0 0 0 0 0 0 0 0 0 0 0 0 0 0 0 0 0 0 0 0 0 0
0 0 0 0 0 0 0 0 0 0 0 0 0 0 0 0 0 0 0 0 0 0 0 0 0 0 0 0 0 0 0 0 0 0 0 0 0 0 0 0 0 0 0
0 0 0 0 0 0 0 0 0 0 0 0 0 0 0 0 0 0 0 0 0 0 0 0 0 0 0 0 0 0 0 0 0 0 0 0 0 0 0 0 0 0 0
0 0 0 0 0 0 0 0 0 0 0 0 0 0 0 0 0 0 0 0 0 0 0 0 0 0 0 0 0 0 0 0 0 0 0 0 0 0 0 0 0 0 0
0 0 0 0 0 0 0 0 0 0 0 0 0 0 0 0 0 0 0 0 0 0 0 0 0 0 0 0 0 0 0 0 0 0 0 0 0 0 0 0 0 0 0
0 0 0 0 0 0 0 0 0 0 0 0 0 0 0 0 0 0 0 0 0 0 0 0 0 0 0 0 0 0 0 0 0 0 0 0 0 0 0 0 0 0 0
0 0 0 0 0 0 0 0 0 0 0 0 0 0 0 0 0 0 0 0 0 0 0 0 0 0 0 0 0 0 0 0 0 0 0 0 0 0 0 0 0 0 0
0 0 0 0 0 0 0 0 0 0 0 0 0 0 0 0 0 0 0 0 0 0 0 0 0 0 0 0 0 0 0 0 0 0 0 0 0 0 0 0 0 0 0
Wind_Speed
5 5 5 5 3 3 3 3 4 4 3 2 2 2 2 2 2 1 2 3 3 4 4 4 5 5 5 5 5 3 3 2 2 1 2 2 2 3 2 2 2 2 3
5 5 5 4 4 4 4 4 4 5 4 2 2 2 2 2 1 2 3 3 3 3 4 5 5 5 4 4 5 4 3 2 2 2 1 2 3 2 1 1 1 1 2
4 4 5 4 4 5 5 4 3 3 4 3 2 1 2 2 2 3 3 3 3 3 4 5 4 5 5 5 6 5 6 4 3 2 3 2 2 2 2 2 1 2 2
5 4 5 5 5 4 3 3 3 3 3 3 3 4 3 2 2 2 2 4 4 3 2 2 3 4 4 4 5 5 4 5 3 2 2 2 3 2 2 2 2 3 4
4 4 4 4 4 4 3 3 2 2 2 2 3 3 2 1 1 2 3 4 4 4 4 2 1 2 3 4 5 5 5 4 4 4 3 2 1 2 2 3 3 3 3
5 5 5 5 6 5 5 4 3 2 2 0 1 2 2 1 0 1 2 2 2 2 4 4 2 2 3 4 5 6 7 6 5 4 4 4 3 3 4 4 3 3 3
5 6 7 7 7 7 6 5 5 5 4 3 3 3 3 3 2 2 1 1 1 1 2 3 2 2 3 4 5 6 6 7 7 7 5 5 4 4 4 3 2 2 3
6 7 8 8 8 9 8 7 7 7 6 5 5 5 4 3 3 4 3 3 3 3 3 2 2 3 3 3 4 5 6 6 8 8 7 5 5 5 5 4 3 2 2
7 7 8 7 8 8 9 8 8 8 8 7 7 6 6 6 6 6 5 4 4 4 4 3 3 3 3 3 3 4 6 6 7 7 8 6 5 5 5 4 4 3 2
6 7 6 6 7 7 8 8 8 9 9 8 8 7 7 8 7 6 7 6 6 5 5 5 4 4 3 3 2 2 3 5 6 5 7 7 5 5 5 5 5 5 4
7 7 6 6 7 8 8 8 9 9 9 10 9 9 9 8 8 7 9 8 7 7 7 6 6 5 5 4 3 3 3 3 4 5 7 8 6 5 5 5 5 6 5
7 6 7 7 8 9 9 9 9 10 10 10 10 10 10 9 9 10 10 9 9 8 8 7 7 7 6 5 5 5 4 3 3 4 5 6 5 7 6 6 7 6 7
8 7 7 8 9 10 10 10 10 11 11 10 10 11 11 11 11 12 11 10 10 10 9 8 9 8 7 6 6 6 5 5 5 4 5 5 6 7 6 7 7 6 6
8 8 9 9 10 10 10 10 11 11 11 10 10 11 12 12 12 11 10 10 10 10 10 10 10 10 9 8 7 7 6 6 5 5 5 5 6 7 7 7 8 7 7
10 10 10 10 10 10 10 10 11 11 11 11 12 12 12 12 11 11 10 10 10 11 10 10 10 9 8 8 9 8 7 7 6 5 5 5 7 9 8 6 7 8 7
10 11 11 11 11 11 11 11 11 11 11 12 13 13 13 12 12 12 11 10 10 10 9 10 11 10 9 11 14 10 7 7 6 6 5 6 7 8 11 12 11 11 9
11 11 11 11 11 11 11 11 12 12 12 13 14 13 13 13 13 13 12 10 9 9 9 10 10 11 11 14 14 14 9 8 7 7 5 5 5 5 6 8 11 12 12
10 10 10 11 11 12 12 12 13 13 13 14 14 14 13 14 13 12 12 11 8 8 8 9 10 10 11 15 15 14 9 7 8 7 7 6 6 5 6 6 7 8 9
10 11 12 13 12 13 13 13 14 14 14 15 14 14 14 14 14 13 12 10 8 8 8 7 9 10 10 13 14 12 6 6 8 7 7 7 6 8 8 7 7 7 6
10 11 12 12 13 13 12 13 15 14 15 15 15 14 14 14 14 13 11 10 8 9 9 9 8 9 9 11 13 12 5 6 6 5 6 8 7 8 9 8 8 8 7
13 12 13 13 13 13 12 14 14 14 15 15 14 14 13 12 13 11 10 9 9 8 8 8 7 8 9 10 12 12 7 7 6 5 4 4 6 8 10 9 8 8 7
12 12 12 13 13 12 12 14 15 14 14 14 14 13 12 11 9 9 9 8 8 8 7 6 6 5 6 8 9 12 12 9 7 6 5 4 5 6 7 8 8 9 9
12 12 13 14 14 12 12 14 15 14 14 14 14 13 12 10 8 8 8 7 6 5 5 5 5 4 4 6 10 11 12 13 7 5 7 6 5 4 4 8 10 10 8
13 12 13 14 15 14 13 13 14 13 14 14 13 11 10 9 8 6 5 5 4 4 4 5 5 4 4 4 4 5 6 9 8 5 5 6 5 3 3 5 7 7 7
11 11 12 14 15 15 15 14 13 12 13 13 11 10 9 8 7 5 4 4 3 3 4 4 4 4 5 6 8 7 6 6 6 6 4 3 3 3 3 4 5 5 6
12 13 13 14 15 15 15 14 12 12 12 11 10 8 7 6 5 5 4 2 2 3 6 5 4 4 5 5 8 10 9 9 11 8 5 5 5 4 5 5 6 6 6
Wind_Direction
42 32 34 37 34 26 35 10 2 347 341 329 336 319 306 297 300 288 264 254 244 223 202 211 194 183 187 188 179 166 176 191 173 177 297 302 273 259 244 251 255 264 269
31 23 18 18 25 21 25 27 16 357 354 332 300 274 280 290 317 337 339 306 272 243 214 210 200 190 183 180 181 168 162 178 177 166 147 332 334 327 350 305 261 300 307
26 9 6 2 13 18 17 23 13 7 5 350 324 331 346 350 7 7 352 326 297 250 230 213 205 197 188 191 191 181 170 179 194 189 161 168 229 298 317 318 322 321 310
0 1 352 344 352 352 354 8 10 19 23 29 45 52 40 20 355 341 333 340 350 347 300 242 216 206 203 202 199 191 180 165 179 197 205 188 170 184 301 312 314 312 301
332 329 318 313 316 318 321 320 333 6 23 50 73 80 75 45 322 340 355 359 359 5 3 330 259 237 226 218 206 193 192 184 176 177 172 180 195 189 210 273 308 313 294
304 302 301 303 299 296 292 285 286 287 284 293 117 133 141 164 1 354 353 348 343 353 4 356 332 276 251 234 220 208 202 200 193 188 183 175 175 185 196 228 262 292 291
284 287 289 288 284 284 278 274 271 270 265 254 237 219 208 207 214 232 253 274 302 309 333 350 330 299 268 254 233 216 214 205 203 201 200 199 199 177 178 202 239 265 286
277 274 272 273 277 282 285 283 278 275 272 262 253 246 236 227 229 230 228 233 233 239 248 273 294 306 299 279 249 232 223 212 212 212 204 202 208 194 186 187 191 247 275
278 275 277 280 282 285 285 283 281 280 277 271 265 258 247 237 236 236 231 234 235 242 240 242 253 272 290 296 276 244 234 221 216 214 209 208 207 200 201 195 186 192 239
298 296 296 295 292 287 285 286 277 270 270 267 259 256 246 241 239 236 236 237 237 236 241 247 246 249 256 264 280 270 246 230 224 214 210 211 205 202 199 198 198 198 206
301 301 304 304 302 300 296 292 288 282 278 273 268 265 261 253 245 238 238 235 236 234 233 236 240 243 243 239 237 252 264 249 239 227 214 215 202 200 199 196 194 199 201
298 295 296 301 302 300 297 293 288 283 278 276 275 270 267 262 254 248 243 235 232 231 229 229 231 238 241 234 229 232 237 242 250 246 231 224 211 207 200 195 199 200 200
304 302 303 302 300 298 296 294 291 287 285 283 279 277 274 267 261 255 249 238 232 231 227 221 224 230 233 232 232 231 227 225 229 240 243 237 220 215 204 199 201 200 199
299 297 296 295 295 295 294 294 294 293 292 290 285 281 277 272 266 261 254 246 236 230 229 224 222 224 225 228 231 230 230 226 223 226 235 241 231 224 212 205 203 195 194
296 294 293 293 293 295 295 295 294 295 295 294 290 285 282 279 275 269 259 250 240 236 229 226 225 223 221 224 223 223 225 223 224 226 233 243 244 238 220 206 200 192 192
294 296 297 297 297 297 297 296 295 294 292 291 290 290 288 285 281 277 270 259 249 240 228 224 223 221 224 222 217 211 217 217 221 230 234 245 250 245 230 216 204 194 191
298 297 297 294 294 295 296 296 294 294 292 289 289 288 287 284 281 280 277 267 258 249 236 227 222 221 223 222 221 218 209 214 218 224 231 245 244 241 235 221 210 206 204
293 294 293 294 293 294 296 294 295 295 293 291 289 287 285 284 280 276 273 268 262 255 246 235 225 222 225 221 222 223 214 213 221 222 223 234 247 239 224 213 207 209 210
290 291 293 296 296 298 299 300 300 298 296 294 291 289 284 281 278 274 269 265 260 256 250 241 227 220 226 220 218 215 202 213 224 226 225 228 241 241 223 209 207 210 213
294 295 297 299 301 302 303 304 304 302 300 298 295 291 285 281 277 271 268 263 255 252 250 242 231 220 223 222 217 206 193 208 221 227 229 231 238 240 220 210 204 207 200
297 299 303 305 305 306 307 306 306 304 304 303 299 296 290 283 276 270 265 260 254 251 245 238 230 221 221 226 220 204 189 199 210 218 222 224 235 241 224 210 209 206 184
304 307 308 309 309 309 310 310 309 308 308 307 305 302 297 290 286 274 267 258 251 247 241 232 229 222 220 222 221 207 200 194 198 210 212 213 221 240 227 211 206 189 176
308 311 311 312 313 314 313 311 310 311 312 311 311 308 304 298 290 281 274 263 246 235 230 223 225 222 214 220 220 210 206 202 198 205 199 201 209 222 223 217 195 181 179
312 312 315 317 318 319 316 310 310 313 315 315 315 314 311 309 303 291 278 262 242 229 223 217 218 217 211 211 206 201 201 201 201 196 189 185 187 197 209 193 189 189 183
311 313 317 317 317 319 317 316 316 317 318 318 317 319 316 314 313 309 298 277 251 230 222 219 211 205 214 216 200 189 188 183 181 166 167 173 179 187 197 190 182 179 172
315 319 320 320 319 319 318 318 319 321 321 321 322 320 320 319 318 319 323 323 282 263 240 230 217 219 225 222 204 201 189 172 161 159 175 184 188 191 194 186 174 171 167